Home   Weather   34°25'N, 119°41'W   Past weeks
Flag for USA

Past Weather in 34°25'N, 119°41'W, USA — Yesterday and Last 2 Weeks

Now
47 °F

Sunny.


Feels Like: 47 °F
Forecast: 59 / 41 °F
Wind: No wind

Location: Santa Barbara Municipal Airport

Current Time: Feb 22, 2019 at 8:52:59 am

Latest Report: Feb 22, 2019 at 7:53 am


Visibility: 10 mi

Pressure: 29.98 "Hg

Humidity: 52%

Dew Point: 30 °F

Location of 34°25'N, 119°41'WLocation

Past Weather in 34°25'N, 119°41'W — Graph

°F

34°25'N, 119°41'W Temperature Yesterday

Maximum temperature yesterday: 57 °F (at 12:53 pm)
Minimum temperature yesterday: 42 °F (at 11:53 pm)
Average temperature yesterday: 49 °F

High & Low Weather Summary for the Past Weeks

 TemperatureHumidityPressure
High61 °F (Feb 12, 12:53 pm)100% (Feb 9, 6:53 am)30.29 "Hg (Feb 9, 6:53 am)
Low33 °F (Feb 19, 5:53 am)27% (Feb 19, 9:53 am)29.61 "Hg (Feb 21, 12:53 pm)
Average50 °F67%30.01 "Hg
* Reported Feb 7 6:53 am — Feb 22 6:53 am, 34°25'N, 119°41'W. Weather by CustomWeather, © 2019

Note: Actual official high and low records may vary slightly from our data, if they occured in-between our weather recording intervals... More about our weather records

Advertising

34°25'N, 119°41'W Weather History for the Previous 24 Hours

Scroll right to see more
 ConditionsComfort  
Time TempWeatherWind HumidityBarometerVisibility
6:53 am
Fri, Feb 22
41 °FSunny.No wind60%29.96 "Hg10 mi
5:53 am42 °FClear.6 mph57%29.93 "Hg10 mi
4:53 am44 °FClear.13 mph55%29.92 "Hg10 mi
3:53 am41 °FClear.7 mph62%29.88 "Hg10 mi
2:53 am46 °FClear.5 mph48%29.87 "Hg10 mi
1:53 am42 °FClear.5 mph65%29.85 "Hg10 mi
12:53 am45 °FClear.No wind53%29.84 "Hg10 mi
11:53 pm
Thu, Feb 21
42 °FClear.3 mph62%29.81 "Hg10 mi
10:53 pm44 °FClear.6 mph58%29.80 "Hg10 mi
9:53 pm46 °FClear.8 mph54%29.78 "Hg10 mi
8:53 pm49 °FClear.5 mph46%29.76 "Hg10 mi
7:53 pm49 °FClear.7 mph48%29.74 "Hg10 mi
6:53 pm49 °FPassing clouds.7 mph46%29.71 "Hg10 mi
5:53 pm50 °FPassing clouds.6 mph48%29.68 "Hg10 mi
4:53 pm54 °FScattered clouds.13 mph38%29.65 "Hg10 mi
3:53 pm56 °FScattered clouds.14 mph33%29.63 "Hg10 mi
2:53 pm55 °FScattered clouds.16 mph37%29.61 "Hg10 mi
1:53 pm53 °FSunny.12 mph39%29.61 "Hg10 mi
12:53 pm57 °FPassing clouds.18 mph39%29.61 "Hg10 mi
11:53 am56 °FPassing clouds.8 mph42%29.62 "Hg10 mi
10:53 am54 °FScattered clouds.7 mph43%29.64 "Hg10 mi
8:53 am50 °FPartly sunny.6 mph61%29.65 "Hg10 mi
Weather by CustomWeather, © 2019

See weather overview